Year,Month,Day,Hour,Minute,Value (Times are PST for temperature in C)
2016,06,27,00,00,16.80
2016,06,27,00,01,16.80
2016,06,27,00,02,16.80
2016,06,27,00,03,16.70
2016,06,27,00,04,16.70
2016,06,27,00,05,16.70
2016,06,27,00,06,16.70
2016,06,27,00,07,16.70
2016,06,27,00,08,16.60
2016,06,27,00,09,16.60
2016,06,27,00,10,16.60
2016,06,27,00,11,16.60
2016,06,27,00,12,16.50
2016,06,27,00,13,16.50
2016,06,27,00,14,16.50
2016,06,27,00,15,16.50
2016,06,27,00,16,16.50
2016,06,27,00,17,16.40
2016,06,27,00,18,16.40
2016,06,27,00,19,16.40
2016,06,27,00,20,16.40
2016,06,27,00,21,16.40
2016,06,27,00,22,16.40
2016,06,27,00,23,16.40
2016,06,27,00,24,16.30
2016,06,27,00,25,16.30
2016,06,27,00,26,16.30
2016,06,27,00,27,16.30
2016,06,27,00,28,16.30
2016,06,27,00,29,16.30
2016,06,27,00,30,16.30
2016,06,27,00,31,16.30
2016,06,27,00,32,16.30
2016,06,27,00,33,16.30
2016,06,27,00,34,16.30
2016,06,27,00,35,16.30
2016,06,27,00,36,16.30
2016,06,27,00,37,16.30
2016,06,27,00,38,16.30
2016,06,27,00,39,16.30
2016,06,27,00,40,16.30
2016,06,27,00,41,16.30
2016,06,27,00,42,16.30
2016,06,27,00,43,16.30
2016,06,27,00,44,16.30
2016,06,27,00,45,16.30
2016,06,27,00,46,16.30
2016,06,27,00,47,16.20
2016,06,27,00,48,16.20
2016,06,27,00,49,16.20
2016,06,27,00,50,16.20
2016,06,27,00,51,16.20
2016,06,27,00,52,16.20
2016,06,27,00,53,16.10
2016,06,27,00,54,16.10
2016,06,27,00,55,16.10
2016,06,27,00,56,16.10
2016,06,27,00,57,16.00
2016,06,27,00,58,16.00
2016,06,27,00,59,16.00
2016,06,27,01,00,16.00
2016,06,27,01,01,16.00
2016,06,27,01,02,16.00
2016,06,27,01,03,16.00
2016,06,27,01,04,16.00
2016,06,27,01,05,16.00
2016,06,27,01,06,16.00
2016,06,27,01,07,15.90
2016,06,27,01,08,15.90
2016,06,27,01,09,15.90
2016,06,27,01,10,15.90
2016,06,27,01,11,15.90
2016,06,27,01,12,15.90
2016,06,27,01,13,15.90
2016,06,27,01,14,15.90
2016,06,27,01,15,15.90
2016,06,27,01,16,15.90
2016,06,27,01,17,15.90
2016,06,27,01,18,15.90
2016,06,27,01,19,15.90
2016,06,27,01,20,15.90
2016,06,27,01,21,15.90
2016,06,27,01,22,15.90
2016,06,27,01,23,15.90
2016,06,27,01,24,15.90
2016,06,27,01,25,15.90
2016,06,27,01,26,15.90
2016,06,27,01,27,15.90
2016,06,27,01,28,15.90
2016,06,27,01,29,15.90
2016,06,27,01,30,15.80
2016,06,27,01,31,15.80
2016,06,27,01,32,15.80
2016,06,27,01,33,15.80
2016,06,27,01,34,15.80
2016,06,27,01,35,15.80
2016,06,27,01,36,15.70
2016,06,27,01,37,15.70
2016,06,27,01,38,15.70
2016,06,27,01,39,15.70
2016,06,27,01,40,15.70
2016,06,27,01,41,15.70
2016,06,27,01,42,15.70
2016,06,27,01,43,15.70
2016,06,27,01,44,15.70
2016,06,27,01,45,15.70
2016,06,27,01,46,15.70
2016,06,27,01,47,15.70
2016,06,27,01,48,15.70
2016,06,27,01,49,15.70
2016,06,27,01,50,15.70
2016,06,27,01,51,15.70
2016,06,27,01,52,15.70
2016,06,27,01,53,15.70
2016,06,27,01,54,15.70
2016,06,27,01,55,15.70
2016,06,27,01,56,15.70
2016,06,27,01,57,15.70
2016,06,27,01,58,15.70
2016,06,27,01,59,15.70
2016,06,27,02,00,15.70
2016,06,27,02,01,15.70
2016,06,27,02,02,15.70
2016,06,27,02,03,15.70
2016,06,27,02,04,15.70
2016,06,27,02,05,15.70
2016,06,27,02,06,15.70
2016,06,27,02,07,15.70
2016,06,27,02,08,15.70
2016,06,27,02,09,15.60
2016,06,27,02,10,15.60
2016,06,27,02,11,15.60
2016,06,27,02,12,15.60
2016,06,27,02,13,15.60
2016,06,27,02,14,15.60
2016,06,27,02,15,15.60
2016,06,27,02,16,15.50
2016,06,27,02,17,15.50
2016,06,27,02,18,15.50
2016,06,27,02,19,15.50
2016,06,27,02,20,15.40
2016,06,27,02,21,15.40
2016,06,27,02,22,15.40
2016,06,27,02,23,15.40
2016,06,27,02,24,15.40
2016,06,27,02,25,15.40
2016,06,27,02,26,15.40
2016,06,27,02,27,15.40
2016,06,27,02,28,15.40
2016,06,27,02,29,15.40
2016,06,27,02,30,15.40
2016,06,27,02,31,15.40
2016,06,27,02,32,15.40
2016,06,27,02,33,15.40
2016,06,27,02,34,15.40
2016,06,27,02,35,15.40
2016,06,27,02,36,15.40
2016,06,27,02,37,15.40
2016,06,27,02,38,15.40
2016,06,27,02,39,15.30
2016,06,27,02,40,15.30
2016,06,27,02,41,15.30
2016,06,27,02,42,15.30
2016,06,27,02,43,15.30
2016,06,27,02,44,15.30
2016,06,27,02,45,15.30
2016,06,27,02,46,15.30
2016,06,27,02,47,15.30
2016,06,27,02,48,15.30
2016,06,27,02,49,15.20
2016,06,27,02,50,15.20
2016,06,27,02,51,15.20
2016,06,27,02,52,15.20
2016,06,27,02,53,15.20
2016,06,27,02,54,15.20
2016,06,27,02,55,15.20
2016,06,27,02,56,15.20
2016,06,27,02,57,15.20
2016,06,27,02,58,15.10
2016,06,27,02,59,15.10
2016,06,27,03,00,15.10
2016,06,27,03,01,15.10
2016,06,27,03,02,15.10
2016,06,27,03,03,15.00
2016,06,27,03,04,15.00
2016,06,27,03,05,15.00
2016,06,27,03,06,15.00
2016,06,27,03,07,14.90
2016,06,27,03,08,14.90
2016,06,27,03,09,14.90
2016,06,27,03,10,14.90
2016,06,27,03,11,14.90
2016,06,27,03,12,14.90
2016,06,27,03,13,14.90
2016,06,27,03,14,14.80
2016,06,27,03,15,14.80
2016,06,27,03,16,14.80
2016,06,27,03,17,14.80
2016,06,27,03,18,14.80
2016,06,27,03,19,14.80
2016,06,27,03,20,14.80
2016,06,27,03,21,14.80
2016,06,27,03,22,14.80
2016,06,27,03,23,14.70
2016,06,27,03,24,14.70
2016,06,27,03,25,14.70
2016,06,27,03,26,14.70
2016,06,27,03,27,14.70
2016,06,27,03,28,14.70
2016,06,27,03,29,14.70
2016,06,27,03,30,14.70
2016,06,27,03,31,14.60
2016,06,27,03,32,14.60
2016,06,27,03,33,14.60
2016,06,27,03,34,14.60
2016,06,27,03,35,14.60
2016,06,27,03,36,14.60
2016,06,27,03,37,14.60
2016,06,27,03,38,14.60
2016,06,27,03,39,14.60
2016,06,27,03,40,14.60
2016,06,27,03,41,14.50
2016,06,27,03,42,14.50
2016,06,27,03,43,14.50
2016,06,27,03,44,14.50
2016,06,27,03,45,14.40
2016,06,27,03,46,14.40
2016,06,27,03,47,14.40
2016,06,27,03,48,14.40
2016,06,27,03,49,14.40
2016,06,27,03,50,14.40
2016,06,27,03,51,14.40
2016,06,27,03,52,14.40
2016,06,27,03,53,14.40
2016,06,27,03,54,14.40
2016,06,27,03,55,14.40
2016,06,27,03,56,14.40
2016,06,27,03,57,14.40
2016,06,27,03,58,14.40
2016,06,27,03,59,14.40
2016,06,27,04,00,14.40
2016,06,27,04,01,14.40
2016,06,27,04,02,14.40
2016,06,27,04,03,14.30
2016,06,27,04,04,14.30
2016,06,27,04,05,14.30
2016,06,27,04,06,14.30
2016,06,27,04,07,14.30
2016,06,27,04,08,14.30
2016,06,27,04,09,14.30
2016,06,27,04,10,14.30
2016,06,27,04,11,14.20
2016,06,27,04,12,14.20
2016,06,27,04,13,14.20
2016,06,27,04,14,14.20
2016,06,27,04,15,14.20
2016,06,27,04,16,14.20
2016,06,27,04,17,14.20
2016,06,27,04,18,14.10
2016,06,27,04,19,14.10
2016,06,27,04,20,14.10
2016,06,27,04,21,14.10
2016,06,27,04,22,14.20
2016,06,27,04,23,14.20
2016,06,27,04,24,14.20
2016,06,27,04,25,14.20
2016,06,27,04,26,14.20
2016,06,27,04,27,14.20
2016,06,27,04,28,14.20
2016,06,27,04,29,14.20
2016,06,27,04,30,14.20
2016,06,27,04,31,14.30
2016,06,27,04,32,14.30
2016,06,27,04,33,14.30
2016,06,27,04,34,14.30
2016,06,27,04,35,14.30
2016,06,27,04,36,14.30
2016,06,27,04,37,14.30
2016,06,27,04,38,14.20
2016,06,27,04,39,14.20
2016,06,27,04,40,14.20
2016,06,27,04,41,14.20
2016,06,27,04,42,14.20
2016,06,27,04,43,14.20
2016,06,27,04,44,14.20
2016,06,27,04,45,14.20
2016,06,27,04,46,14.20
2016,06,27,04,47,14.20
2016,06,27,04,48,14.20
2016,06,27,04,49,14.30
2016,06,27,04,50,14.30
2016,06,27,04,51,14.30
2016,06,27,04,52,14.30
2016,06,27,04,53,14.30
2016,06,27,04,54,14.30
2016,06,27,04,55,14.30
2016,06,27,04,56,14.30
2016,06,27,04,57,14.30
2016,06,27,04,58,14.20
2016,06,27,04,59,14.20
2016,06,27,05,00,14.20
2016,06,27,05,01,14.20
2016,06,27,05,02,14.10
2016,06,27,05,03,14.10
2016,06,27,05,04,14.10
2016,06,27,05,05,14.10
2016,06,27,05,06,14.10
2016,06,27,05,07,14.10
2016,06,27,05,08,14.10
2016,06,27,05,09,14.10
2016,06,27,05,10,14.00
2016,06,27,05,11,14.00
2016,06,27,05,12,14.00
2016,06,27,05,13,14.00
2016,06,27,05,14,13.90
2016,06,27,05,15,13.90
2016,06,27,05,16,13.90
2016,06,27,05,17,13.90
2016,06,27,05,18,13.90
2016,06,27,05,19,13.90
2016,06,27,05,20,13.90
2016,06,27,05,21,13.90
2016,06,27,05,22,13.90
2016,06,27,05,23,13.90
2016,06,27,05,24,13.90
2016,06,27,05,25,13.90
2016,06,27,05,26,13.90
2016,06,27,05,27,13.90
2016,06,27,05,28,13.90
2016,06,27,05,29,13.90
2016,06,27,05,30,13.90
2016,06,27,05,31,13.90
2016,06,27,05,32,13.90
2016,06,27,05,33,13.90
2016,06,27,05,34,13.90
2016,06,27,05,35,13.90
2016,06,27,05,36,13.90
2016,06,27,05,37,13.90
2016,06,27,05,38,13.90
2016,06,27,05,39,13.90
2016,06,27,05,40,13.90
2016,06,27,05,41,13.90
2016,06,27,05,42,13.80
2016,06,27,05,43,13.80
2016,06,27,05,44,13.80
2016,06,27,05,45,13.80
2016,06,27,05,46,13.80
2016,06,27,05,47,13.80
2016,06,27,05,48,13.80
2016,06,27,05,49,13.80
2016,06,27,05,50,13.80
2016,06,27,05,51,13.80
2016,06,27,05,52,13.80
2016,06,27,05,53,13.80
2016,06,27,05,54,13.80
2016,06,27,05,55,13.80
2016,06,27,05,56,13.80
2016,06,27,05,57,13.90
2016,06,27,05,58,13.90
2016,06,27,05,59,13.90
2016,06,27,06,00,13.90
2016,06,27,06,01,13.80
2016,06,27,06,02,13.80
2016,06,27,06,03,13.80
2016,06,27,06,04,13.80
2016,06,27,06,05,13.80
2016,06,27,06,06,13.80
2016,06,27,06,07,13.80
2016,06,27,06,08,13.90
2016,06,27,06,09,13.90
2016,06,27,06,10,13.90
2016,06,27,06,11,14.00
2016,06,27,06,12,14.00
2016,06,27,06,13,14.10
2016,06,27,06,14,14.10
2016,06,27,06,15,14.10
2016,06,27,06,16,14.20
2016,06,27,06,17,14.20
2016,06,27,06,18,14.30
2016,06,27,06,19,14.30
2016,06,27,06,20,14.40
2016,06,27,06,21,14.40
2016,06,27,06,22,14.40
2016,06,27,06,23,14.50
2016,06,27,06,24,14.50
2016,06,27,06,25,14.50
2016,06,27,06,26,14.60
2016,06,27,06,27,14.60
2016,06,27,06,28,14.60
2016,06,27,06,29,14.60
2016,06,27,06,30,14.70
2016,06,27,06,31,14.70
2016,06,27,06,32,14.70
2016,06,27,06,33,14.80
2016,06,27,06,34,14.80
2016,06,27,06,35,14.80
2016,06,27,06,36,14.80
2016,06,27,06,37,14.80
2016,06,27,06,38,14.80
2016,06,27,06,39,14.90
2016,06,27,06,40,14.90
2016,06,27,06,41,14.90
2016,06,27,06,42,14.90
2016,06,27,06,43,14.90
2016,06,27,06,44,14.90
2016,06,27,06,45,15.00
2016,06,27,06,46,15.00
2016,06,27,06,47,15.00
2016,06,27,06,48,15.10
2016,06,27,06,49,15.10
2016,06,27,06,50,15.20
2016,06,27,06,51,15.20
2016,06,27,06,52,15.20
2016,06,27,06,53,15.30
2016,06,27,06,54,15.30
2016,06,27,06,55,15.40
2016,06,27,06,56,15.40
2016,06,27,06,57,15.40
2016,06,27,06,58,15.50
2016,06,27,06,59,15.60
2016,06,27,07,00,15.60
2016,06,27,07,01,15.60
2016,06,27,07,02,15.60
2016,06,27,07,03,15.70
2016,06,27,07,04,15.70
2016,06,27,07,05,15.70
2016,06,27,07,06,15.70
2016,06,27,07,07,15.70
2016,06,27,07,08,15.70
2016,06,27,07,09,15.80
2016,06,27,07,10,15.80
2016,06,27,07,11,15.80
2016,06,27,07,12,15.80
2016,06,27,07,13,15.80
2016,06,27,07,14,15.80
2016,06,27,07,15,15.90
2016,06,27,07,16,15.90
2016,06,27,07,17,15.90
2016,06,27,07,18,15.90
2016,06,27,07,19,15.90
2016,06,27,07,20,15.90
2016,06,27,07,21,15.90
2016,06,27,07,22,16.00
2016,06,27,07,23,16.00
2016,06,27,07,24,16.10
2016,06,27,07,25,16.10
2016,06,27,07,26,16.20
2016,06,27,07,27,16.20
2016,06,27,07,28,16.20
2016,06,27,07,29,16.30
2016,06,27,07,30,16.30
2016,06,27,07,31,16.30
2016,06,27,07,32,16.40
2016,06,27,07,33,16.40
2016,06,27,07,34,16.50
2016,06,27,07,35,16.60
2016,06,27,07,36,16.70
2016,06,27,07,37,16.70
2016,06,27,07,38,16.80
2016,06,27,07,39,16.90
2016,06,27,07,40,17.00
2016,06,27,07,41,17.10
2016,06,27,07,42,17.10
2016,06,27,07,43,17.20
2016,06,27,07,44,17.30
2016,06,27,07,45,17.50
2016,06,27,07,46,17.60
2016,06,27,07,47,17.70
2016,06,27,07,48,17.70
2016,06,27,07,49,17.80
2016,06,27,07,50,17.90
2016,06,27,07,51,18.00
2016,06,27,07,52,18.00
2016,06,27,07,53,18.10
2016,06,27,07,54,18.10
2016,06,27,07,55,18.20
2016,06,27,07,56,18.20
2016,06,27,07,57,18.30
2016,06,27,07,58,18.30
2016,06,27,07,59,18.40
2016,06,27,08,00,18.40
2016,06,27,08,01,18.50
2016,06,27,08,02,18.50
2016,06,27,08,03,18.60
2016,06,27,08,04,18.60
2016,06,27,08,05,18.70
2016,06,27,08,06,18.70
2016,06,27,08,07,18.80
2016,06,27,08,08,18.90
2016,06,27,08,09,18.90
2016,06,27,08,10,19.00
2016,06,27,08,11,19.10
2016,06,27,08,12,19.20
2016,06,27,08,13,19.30
2016,06,27,08,14,19.30
2016,06,27,08,15,19.40
2016,06,27,08,16,19.50
2016,06,27,08,17,19.60
2016,06,27,08,18,19.70
2016,06,27,08,19,19.80
2016,06,27,08,20,19.80
2016,06,27,08,21,19.90
2016,06,27,08,22,19.90
2016,06,27,08,23,20.00
2016,06,27,08,24,20.10
2016,06,27,08,25,20.10
2016,06,27,08,26,20.10
2016,06,27,08,27,20.20
2016,06,27,08,28,20.20
2016,06,27,08,29,20.30
2016,06,27,08,30,20.30
2016,06,27,08,31,20.30
2016,06,27,08,32,20.40
2016,06,27,08,33,20.40
2016,06,27,08,34,20.50
2016,06,27,08,35,20.50
2016,06,27,08,36,20.50
2016,06,27,08,37,20.60
2016,06,27,08,38,20.60
2016,06,27,08,39,20.60
2016,06,27,08,40,20.60
2016,06,27,08,41,20.60
2016,06,27,08,42,20.70
2016,06,27,08,43,20.70
2016,06,27,08,44,20.70
2016,06,27,08,45,20.80
2016,06,27,08,46,20.80
2016,06,27,08,47,20.80
2016,06,27,08,48,20.80
2016,06,27,08,49,20.90
2016,06,27,08,50,20.90
2016,06,27,08,51,20.90
2016,06,27,08,52,20.90
2016,06,27,08,53,20.80
2016,06,27,08,54,20.80
2016,06,27,08,55,20.80
2016,06,27,08,56,20.80
2016,06,27,08,57,20.90
2016,06,27,08,58,20.90
2016,06,27,08,59,20.90
2016,06,27,09,00,20.90
2016,06,27,09,01,20.80
2016,06,27,09,02,20.80
2016,06,27,09,03,20.80
2016,06,27,09,04,20.80
2016,06,27,09,05,20.70
2016,06,27,09,06,20.70
2016,06,27,09,07,20.70
2016,06,27,09,08,20.60
2016,06,27,09,09,20.60
2016,06,27,09,10,20.60
2016,06,27,09,11,20.60
2016,06,27,09,12,20.60
2016,06,27,09,13,20.70
2016,06,27,09,14,20.70
2016,06,27,09,15,20.70
2016,06,27,09,16,20.70
2016,06,27,09,17,20.70
2016,06,27,09,18,20.70
2016,06,27,09,19,20.70
2016,06,27,09,20,20.70
2016,06,27,09,21,20.70
2016,06,27,09,22,20.70
2016,06,27,09,23,20.80
2016,06,27,09,24,20.80
2016,06,27,09,25,20.80
2016,06,27,09,26,20.90
2016,06,27,09,27,20.90
2016,06,27,09,28,21.00
2016,06,27,09,29,21.10
2016,06,27,09,30,21.20
2016,06,27,09,31,21.20
2016,06,27,09,32,21.30
2016,06,27,09,33,21.40
2016,06,27,09,34,21.50
2016,06,27,09,35,21.50
2016,06,27,09,36,21.60
2016,06,27,09,37,21.70
2016,06,27,09,38,21.70
2016,06,27,09,39,21.80
2016,06,27,09,40,21.80
2016,06,27,09,41,21.80
2016,06,27,09,42,21.80
2016,06,27,09,43,21.70
2016,06,27,09,44,21.80
2016,06,27,09,45,21.80
2016,06,27,09,46,21.80
2016,06,27,09,47,21.80
2016,06,27,09,48,21.80
2016,06,27,09,49,21.80
2016,06,27,09,50,21.80
2016,06,27,09,51,21.80
2016,06,27,09,52,21.80
2016,06,27,09,53,21.80
2016,06,27,09,54,21.80
2016,06,27,09,55,21.80
2016,06,27,09,56,21.90
2016,06,27,09,57,21.80
2016,06,27,09,58,21.80
2016,06,27,09,59,21.80
2016,06,27,10,00,21.70
2016,06,27,10,01,21.70
2016,06,27,10,02,21.70
2016,06,27,10,03,21.70
2016,06,27,10,04,21.70
2016,06,27,10,05,21.70
2016,06,27,10,06,21.70
2016,06,27,10,07,21.70
2016,06,27,10,08,21.80
2016,06,27,10,09,21.80
2016,06,27,10,10,21.90
2016,06,27,10,11,22.00
2016,06,27,10,12,22.10
2016,06,27,10,13,22.10
2016,06,27,10,14,22.20
2016,06,27,10,15,22.20
2016,06,27,10,16,22.20
2016,06,27,10,17,22.30
2016,06,27,10,18,22.30
2016,06,27,10,19,22.40
2016,06,27,10,20,22.40
2016,06,27,10,21,22.40
2016,06,27,10,22,22.50
2016,06,27,10,23,22.50
2016,06,27,10,24,22.60
2016,06,27,10,25,22.70
2016,06,27,10,26,22.70
2016,06,27,10,27,22.80
2016,06,27,10,28,22.80
2016,06,27,10,29,22.90
2016,06,27,10,30,23.00
2016,06,27,10,31,23.00
2016,06,27,10,32,23.10
2016,06,27,10,33,23.10
2016,06,27,10,34,23.20
2016,06,27,10,35,23.30
2016,06,27,10,36,23.30
2016,06,27,10,37,23.30
2016,06,27,10,38,23.30
2016,06,27,10,39,23.30
2016,06,27,10,40,23.30
2016,06,27,10,41,23.30
2016,06,27,10,42,23.30
2016,06,27,10,43,23.30
2016,06,27,10,44,23.30
2016,06,27,10,45,23.40
2016,06,27,10,46,23.40
2016,06,27,10,47,23.40
2016,06,27,10,48,23.40
2016,06,27,10,49,23.50
2016,06,27,10,50,23.50
2016,06,27,10,51,23.50
2016,06,27,10,52,23.50
2016,06,27,10,53,23.50
2016,06,27,10,54,23.40
2016,06,27,10,55,23.40
2016,06,27,10,56,23.40
2016,06,27,10,57,23.40
2016,06,27,10,58,23.40
2016,06,27,10,59,23.40
2016,06,27,11,00,23.50
2016,06,27,11,01,23.50
2016,06,27,11,02,23.40
2016,06,27,11,03,23.40
2016,06,27,11,04,23.40
2016,06,27,11,05,23.50
2016,06,27,11,06,23.50
2016,06,27,11,07,23.40
2016,06,27,11,08,23.40
2016,06,27,11,09,23.40
2016,06,27,11,10,23.40
2016,06,27,11,11,23.30
2016,06,27,11,12,23.30
2016,06,27,11,13,23.30
2016,06,27,11,14,23.40
2016,06,27,11,15,23.40
2016,06,27,11,16,23.40
2016,06,27,11,17,23.40
2016,06,27,11,18,23.40
2016,06,27,11,19,23.40
2016,06,27,11,20,23.40
2016,06,27,11,21,23.50
2016,06,27,11,22,23.60
2016,06,27,11,23,23.60
2016,06,27,11,24,23.70
2016,06,27,11,25,23.70
2016,06,27,11,26,23.80
2016,06,27,11,27,23.90
2016,06,27,11,28,23.90
2016,06,27,11,29,23.90
2016,06,27,11,30,23.80
2016,06,27,11,31,23.80
2016,06,27,11,32,23.80
2016,06,27,11,33,23.80
2016,06,27,11,34,23.70
2016,06,27,11,35,23.70
2016,06,27,11,36,23.80
2016,06,27,11,37,23.90
2016,06,27,11,38,23.90
2016,06,27,11,39,23.90
2016,06,27,11,40,23.90
2016,06,27,11,41,23.80
2016,06,27,11,42,23.80
2016,06,27,11,43,23.70
2016,06,27,11,44,23.60
2016,06,27,11,45,23.60
2016,06,27,11,46,23.60
2016,06,27,11,47,23.60
2016,06,27,11,48,23.60
2016,06,27,11,49,23.60
2016,06,27,11,50,23.60
2016,06,27,11,51,23.60
2016,06,27,11,52,23.50
2016,06,27,11,53,23.50
2016,06,27,11,54,23.60
2016,06,27,11,55,23.70
2016,06,27,11,56,23.70
2016,06,27,11,57,23.80
2016,06,27,11,58,23.80
2016,06,27,11,59,23.80
2016,06,27,12,00,23.80
2016,06,27,12,01,23.90
2016,06,27,12,02,23.90
2016,06,27,12,03,24.00
2016,06,27,12,04,24.00
2016,06,27,12,05,24.10
2016,06,27,12,06,24.10
2016,06,27,12,07,24.10
2016,06,27,12,08,24.20
2016,06,27,12,09,24.20
2016,06,27,12,10,24.20
2016,06,27,12,11,24.20
2016,06,27,12,12,24.10
2016,06,27,12,13,24.10
2016,06,27,12,14,24.10
2016,06,27,12,15,24.20
2016,06,27,12,16,24.30
2016,06,27,12,17,24.30
2016,06,27,12,18,24.30
2016,06,27,12,19,24.30
2016,06,27,12,20,24.40
2016,06,27,12,21,24.40
2016,06,27,12,22,24.30
2016,06,27,12,23,24.20
2016,06,27,12,24,24.10
2016,06,27,12,25,24.00
2016,06,27,12,26,24.00
2016,06,27,12,27,23.90
2016,06,27,12,28,23.90
2016,06,27,12,29,23.90
2016,06,27,12,30,24.00
2016,06,27,12,31,24.00
2016,06,27,12,32,24.10
2016,06,27,12,33,24.10
2016,06,27,12,34,24.10
2016,06,27,12,35,24.20
2016,06,27,12,36,24.20
2016,06,27,12,37,24.30
2016,06,27,12,38,24.40
2016,06,27,12,39,24.40
2016,06,27,12,40,24.50
2016,06,27,12,41,24.60
2016,06,27,12,42,24.70
2016,06,27,12,43,24.70
2016,06,27,12,44,24.80
2016,06,27,12,45,24.80
2016,06,27,12,46,24.80
2016,06,27,12,47,24.80
2016,06,27,12,48,24.80
2016,06,27,12,49,24.90
2016,06,27,12,50,25.00
2016,06,27,12,51,25.20
2016,06,27,12,52,25.30
2016,06,27,12,53,25.30
2016,06,27,12,54,25.30
2016,06,27,12,55,25.20
2016,06,27,12,56,25.10
2016,06,27,12,57,25.00
2016,06,27,12,58,24.90
2016,06,27,12,59,24.80
2016,06,27,13,00,24.70
2016,06,27,13,01,24.70
2016,06,27,13,02,24.70
2016,06,27,13,03,24.70
2016,06,27,13,04,24.50
2016,06,27,13,05,24.40
2016,06,27,13,06,24.30
2016,06,27,13,07,24.10
2016,06,27,13,08,24.10
2016,06,27,13,09,24.10
2016,06,27,13,10,24.10
2016,06,27,13,11,24.20
2016,06,27,13,12,24.30
2016,06,27,13,13,24.40
2016,06,27,13,14,24.40
2016,06,27,13,15,24.50
2016,06,27,13,16,24.60
2016,06,27,13,17,24.70
2016,06,27,13,18,24.90
2016,06,27,13,19,24.90
2016,06,27,13,20,25.00
2016,06,27,13,21,25.10
2016,06,27,13,22,25.20
2016,06,27,13,23,25.30
2016,06,27,13,24,25.40
2016,06,27,13,25,25.50
2016,06,27,13,26,25.60
2016,06,27,13,27,25.60
2016,06,27,13,28,25.60
2016,06,27,13,29,25.50
2016,06,27,13,30,25.40
2016,06,27,13,31,25.30
2016,06,27,13,32,25.20
2016,06,27,13,33,25.20
2016,06,27,13,34,25.10
2016,06,27,13,35,25.10
2016,06,27,13,36,25.10
2016,06,27,13,37,25.00
2016,06,27,13,38,25.00
2016,06,27,13,39,24.90
2016,06,27,13,40,24.90
2016,06,27,13,41,24.90
2016,06,27,13,42,25.00
2016,06,27,13,43,25.00
2016,06,27,13,44,25.00
2016,06,27,13,45,25.10
2016,06,27,13,46,25.10
2016,06,27,13,47,25.00
2016,06,27,13,48,25.00
2016,06,27,13,49,25.00
2016,06,27,13,50,25.00
2016,06,27,13,51,25.10
2016,06,27,13,52,25.10
2016,06,27,13,53,25.10
2016,06,27,13,54,25.20
2016,06,27,13,55,25.20
2016,06,27,13,56,25.30
2016,06,27,13,57,25.30
2016,06,27,13,58,25.40
2016,06,27,13,59,25.30
2016,06,27,14,00,25.30
2016,06,27,14,01,25.30
2016,06,27,14,02,25.30
2016,06,27,14,03,25.30
2016,06,27,14,04,25.30
2016,06,27,14,05,25.40
2016,06,27,14,06,25.40
2016,06,27,14,07,25.50
2016,06,27,14,08,25.50
2016,06,27,14,09,25.40
2016,06,27,14,10,25.40
2016,06,27,14,11,25.40
2016,06,27,14,12,25.30
2016,06,27,14,13,25.30
2016,06,27,14,14,25.20
2016,06,27,14,15,25.10
2016,06,27,14,16,25.10
2016,06,27,14,17,25.20
2016,06,27,14,18,25.20
2016,06,27,14,19,25.30
2016,06,27,14,20,25.50
2016,06,27,14,21,25.60
2016,06,27,14,22,25.60
2016,06,27,14,23,25.70
2016,06,27,14,24,25.70
2016,06,27,14,25,25.80
2016,06,27,14,26,25.90
2016,06,27,14,27,26.00
2016,06,27,14,28,26.10
2016,06,27,14,29,26.00
2016,06,27,14,30,26.10
2016,06,27,14,31,26.10
2016,06,27,14,32,26.20
2016,06,27,14,33,26.30
2016,06,27,14,34,26.30
2016,06,27,14,35,26.20
2016,06,27,14,36,26.10
2016,06,27,14,37,26.00
2016,06,27,14,38,25.90
2016,06,27,14,39,25.90
2016,06,27,14,40,26.00
2016,06,27,14,41,26.00
2016,06,27,14,42,26.10
2016,06,27,14,43,26.10
2016,06,27,14,44,26.10
2016,06,27,14,45,26.10
2016,06,27,14,46,26.10
2016,06,27,14,47,26.10
2016,06,27,14,48,26.10
2016,06,27,14,49,26.10
2016,06,27,14,50,26.10
2016,06,27,14,51,26.10
2016,06,27,14,52,26.10
2016,06,27,14,53,26.10
2016,06,27,14,54,26.20
2016,06,27,14,55,26.30
2016,06,27,14,56,26.30
2016,06,27,14,57,26.30
2016,06,27,14,58,26.30
2016,06,27,14,59,26.30
2016,06,27,15,00,26.30
2016,06,27,15,01,26.40
2016,06,27,15,02,26.30
2016,06,27,15,03,26.30
2016,06,27,15,04,26.30
2016,06,27,15,05,26.30
2016,06,27,15,06,26.40
2016,06,27,15,07,26.30
2016,06,27,15,08,26.30
2016,06,27,15,09,26.30
2016,06,27,15,10,26.30
2016,06,27,15,11,26.30
2016,06,27,15,12,26.30
2016,06,27,15,13,26.40
2016,06,27,15,14,26.40
2016,06,27,15,15,26.50
2016,06,27,15,16,26.40
2016,06,27,15,17,26.40
2016,06,27,15,18,26.40
2016,06,27,15,19,26.40
2016,06,27,15,20,26.40
2016,06,27,15,21,26.50
2016,06,27,15,22,26.60
2016,06,27,15,23,26.60
2016,06,27,15,24,26.70
2016,06,27,15,25,26.70
2016,06,27,15,26,26.70
2016,06,27,15,27,26.60
2016,06,27,15,28,26.50
2016,06,27,15,29,26.50
2016,06,27,15,30,26.40
2016,06,27,15,31,26.30
2016,06,27,15,32,26.10
2016,06,27,15,33,26.00
2016,06,27,15,34,25.80
2016,06,27,15,35,25.70
2016,06,27,15,36,25.60
2016,06,27,15,37,25.60
2016,06,27,15,38,25.60
2016,06,27,15,39,25.60
2016,06,27,15,40,25.50
2016,06,27,15,41,25.40
2016,06,27,15,42,25.40
2016,06,27,15,43,25.50
2016,06,27,15,44,25.60
2016,06,27,15,45,25.70
2016,06,27,15,46,25.80
2016,06,27,15,47,25.90
2016,06,27,15,48,25.90
2016,06,27,15,49,25.90
2016,06,27,15,50,25.90
2016,06,27,15,51,25.80
2016,06,27,15,52,25.80
2016,06,27,15,53,25.80
2016,06,27,15,54,25.80
2016,06,27,15,55,25.80
2016,06,27,15,56,25.80
2016,06,27,15,57,25.80
2016,06,27,15,58,25.80
2016,06,27,15,59,25.80
2016,06,27,16,00,25.80
2016,06,27,16,01,25.90
2016,06,27,16,02,25.90
2016,06,27,16,03,25.90
2016,06,27,16,04,25.80
2016,06,27,16,05,25.80
2016,06,27,16,06,25.70
2016,06,27,16,07,25.60
2016,06,27,16,08,25.60
2016,06,27,16,09,25.50
2016,06,27,16,10,25.50
2016,06,27,16,11,25.40
2016,06,27,16,12,25.40
2016,06,27,16,13,25.40
2016,06,27,16,14,25.40
2016,06,27,16,15,25.40
2016,06,27,16,16,25.40
2016,06,27,16,17,25.40
2016,06,27,16,18,25.30
2016,06,27,16,19,25.30
2016,06,27,16,20,25.30
2016,06,27,16,21,25.30
2016,06,27,16,22,25.30
2016,06,27,16,23,25.30
2016,06,27,16,24,25.30
2016,06,27,16,25,25.30
2016,06,27,16,26,25.20
2016,06,27,16,27,25.20
2016,06,27,16,28,25.10
2016,06,27,16,29,25.00
2016,06,27,16,30,25.00
2016,06,27,16,31,25.00
2016,06,27,16,32,25.00
2016,06,27,16,33,25.10
2016,06,27,16,34,25.10
2016,06,27,16,35,25.20
2016,06,27,16,36,25.20
2016,06,27,16,37,25.30
2016,06,27,16,38,25.30
2016,06,27,16,39,25.30
2016,06,27,16,40,25.40
2016,06,27,16,41,25.50
2016,06,27,16,42,25.60
2016,06,27,16,43,25.70
2016,06,27,16,44,25.80
2016,06,27,16,45,25.90
2016,06,27,16,46,26.10
2016,06,27,16,47,26.20
2016,06,27,16,48,26.20
2016,06,27,16,49,26.30
2016,06,27,16,50,26.30
2016,06,27,16,51,26.40
2016,06,27,16,52,26.50
2016,06,27,16,53,26.60
2016,06,27,16,54,26.60
2016,06,27,16,55,26.60
2016,06,27,16,56,26.70
2016,06,27,16,57,26.80
2016,06,27,16,58,26.80
2016,06,27,16,59,26.90
2016,06,27,17,00,26.90
2016,06,27,17,01,27.00
2016,06,27,17,02,27.10
2016,06,27,17,03,27.10
2016,06,27,17,04,27.20
2016,06,27,17,05,27.20
2016,06,27,17,06,27.30
2016,06,27,17,07,27.40
2016,06,27,17,08,27.40
2016,06,27,17,09,27.50
2016,06,27,17,10,27.60
2016,06,27,17,11,27.60
2016,06,27,17,12,27.60
2016,06,27,17,13,27.60
2016,06,27,17,14,27.50
2016,06,27,17,15,27.50
2016,06,27,17,16,27.30
2016,06,27,17,17,27.30
2016,06,27,17,18,27.20
2016,06,27,17,19,27.10